Location: La Fraisse
(46.0296°N, 1.3588°E)
Time: 06:25:34
(UTC+00:00)

Daily predictions for brighter satellites

Satellite Brightness Start Highest point End
(mag) Time Altitude Azimuth Time Altitude Azimuth Time Altitude Azimuth
IRIDIUM 106 4.3 19:29:23 10° S 19:34:34 70° E 19:39:46 10° N
Cosmos 1633 Rocket 3.6 19:32:45 10° SSE 19:36:51 39° E 19:40:58 10° NNE
Cosmos 1184 Rocket 3.9 19:34:55 10° SSE 19:37:42 25° E 19:40:30 10° NE
SL-08 RB Rocket 3.9 19:34:29 10° S 19:39:08 81° WSW 19:43:50 10° NNW
Cosmos 921 Rocket 3.8 19:37:10 10° N 19:41:02 34° ENE 19:44:50 10° SE
Cosmos 2123 Rocket 4.3 19:36:28 10° N 19:42:32 50° ENE 19:48:37 10° SSE
Cosmos 2239 Rocket 4.5 19:36:39 10° S 19:42:43 68° E 19:48:51 10° NNE
Meteor 1-27 Rocket 3.9 19:41:55 10° N 19:47:53 84° ENE 19:53:50 10° SSE
ARGOS 4.2 19:47:59 10° S 19:53:10 48° W 19:58:23 10° NNW
Cosmos 1707 Rocket 3.6 19:49:33 10° N 19:53:54 87° W 19:58:14 10° S
CZ-2C R/B 2.5 19:49:42 10° NNE 19:54:56 81° ESE 20:00:12 10° SSW
NOSS 3-2 (A) 3.3 19:49:33 10° SSW 19:55:09 68° ESE 20:01:33 10° NE
Cosmos 192 4.3 19:51:31 10° NNW 19:56:27 75° ENE 20:01:21 10° SSE
USA 267 4.1 19:53:54 10° ENE 19:59:07 25° SE 20:04:19 10° S
SL-4 R/B 3.1 19:58:07 10° W 20:02:00 42° NNW 20:05:36 10° ENE
SL-16 R/B 3.0 19:56:46 10° NNW 20:02:02 37° NE 20:06:27 14° ESE
BREEZE-M DEB (TANK) 2.6 20:00:43 10° W 20:03:09 59° N 20:08:26 10° ENE
MONITOR-E 3.8 20:00:56 10° S 20:03:15 64° W 20:05:36 10° NNW
BREEZE-M DEB (TANK) 4.1 19:59:41 10° WNW 20:03:55 20° WSW 20:06:20 10° S
SL-27 R/B 3.9 20:04:28 16° ESE 20:05:07 17° E 20:07:19 10° ENE
NOSS 3-2 (C) 3.5 20:00:27 10° SSW 20:05:53 50° ESE 20:12:02 10° NE
Cosmos 1470 Rocket 3.9 20:02:27 10° SSE 20:06:39 45° E 20:10:49 10° NNE
Sich 1 3.9 20:03:06 10° SSW 20:07:27 55° WNW 20:11:50 10° N
Cosmos 2082 Rocket 2.6 20:04:53 10° SW 20:10:33 69° WNW 20:16:13 10° NNE
BREEZE-M DEB (TANK) 3.0 20:07:43 10° W 20:10:46 39° N 20:12:31 11° ENE
USA 186 4.0 20:10:51 10° SW 20:12:09 14° W 20:13:28 10° WNW
Meteor 2-20 Rocket 4.4 20:09:06 10° N 20:15:18 77° E 20:21:26 10° SSE
Meteor 1-4 Rocket 3.1 20:14:30 10° NNW 20:17:53 54° W 20:21:16 10° S
ERS-1 Rocket 4.4 20:16:15 15° ESE 20:19:00 23° ENE 20:22:53 10° NNE
H-2A R/B 4.4 20:15:34 10° SW 20:19:23 21° W 20:23:10 10° NW
Cosmos 2322 Rocket 2.9 20:14:02 10° NNW 20:19:25 40° NE 20:23:14 18° ESE
Cosmos 2278 4.5 20:15:12 10° NW 20:20:43 51° WSW 20:26:11 10° S
Cosmos 1862 Rocket 3.5 20:17:15 10° N 20:21:44 89° E 20:25:58 11° S
Cosmos 1850 Rocket 4.3 20:18:08 10° S 20:23:11 47° ESE 20:28:14 10° NNE
Meteor 1-25 Rocket 4.2 20:19:37 10° S 20:25:08 67° E 20:30:45 10° NNE
Cosmos 676 Rocket 4.4 20:20:44 10° SSW 20:26:02 68° WNW 20:31:23 10° NNE
SPOT 1/Viking Rocket 4.3 20:23:32 19° SE 20:26:46 38° ENE 20:31:35 10° N
Cosmos 841 Rocket 4.4 20:22:14 10° N 20:27:00 34° ENE 20:29:56 20° ESE
USA 32 4.0 20:22:43 10° S 20:27:54 70° E 20:33:07 10° N
Cosmos 2360 Rocket 3.4 20:23:32 10° N 20:28:25 28° NE 20:31:48 16° E
USA 276 2.3 20:25:25 10° WNW 20:28:35 65° NNE 20:30:11 26° E
X-37B 0.8 20:26:05 10° W 20:29:10 54° SSW 20:30:22 31° SE
Terra 3.6 20:27:56 14° E 20:29:56 18° ENE 20:33:05 10° NNE
Meteor 1-18 Rocket 4.3 20:24:30 10° N 20:30:00 57° ENE 20:33:52 19° SSE
ATLAS 3B R/B 3.3 20:25:35 10° S 20:31:08 29° ESE 20:36:42 10° NE
IGS 5A 3.9 20:29:39 23° SE 20:31:51 45° ENE 20:35:50 10° N
Cosmos 1238 Rocket 2.0 20:30:32 22° S 20:32:14 64° E 20:35:14 10° NNE
USA 234 4.1 20:29:12 10° E 20:35:18 43° NNE 20:41:24 10° NW
Cosmos 468 Rocket 4.0 20:30:50 10° NNW 20:36:11 80° ENE 20:39:42 21° SSE
Cosmos 1934 Rocket 4.3 20:30:04 10° SSW 20:36:25 71° W 20:42:47 10° N
CZ-2C R/B 4.0 20:31:57 10° N 20:36:31 68° WNW 20:40:58 10° SSW
Cosmos 1980 Rocket 3.3 20:32:07 10° NW 20:37:24 41° WSW 20:42:39 10° S
Cosmos 44 3.6 20:32:51 10° NNW 20:37:43 58° NE 20:40:36 25° ESE
Resurs 01 Rocket 1.8 20:34:56 13° S 20:38:47 70° WSW 20:43:13 10° NNW
Lacrosse 5 1.9 20:33:50 10° NW 20:38:54 75° SW 20:41:50 25° SE
Cosmos 1602 3.7 20:37:46 17° S 20:40:41 68° E 20:44:36 10° NNE
GP-B 3.1 20:40:32 10° N 20:45:00 89° WNW 20:48:37 15° S
SPOT 3 Rocket 4.4 20:41:47 10° S 20:46:47 47° W 20:51:47 10° NNW
Cosmos 1933 Rocket 3.5 20:43:00 12° S 20:47:09 84° E 20:51:37 10° N
Cosmos 405 Rocket 2.8 20:50:04 11° SSW 20:53:31 70° W 20:57:17 10° N
Spot 2 Rocket 3.4 20:51:17 26° SSE 20:54:13 78° ENE 20:59:20 10° NNW
USA 238 DEB 4.2 20:49:14 10° SW 20:55:48 60° NW 21:02:41 10° NE
USA 238 4.2 20:49:20 10° SW 20:55:54 61° NW 21:02:46 10° NE
Cosmos 1515 3.6 20:54:37 10° N 20:58:28 76° E 20:59:36 43° SSE
Cosmos 1869 Rocket 3.9 20:57:44 36° SE 20:58:51 44° E 21:03:06 10° NNE
CENTAUR R/B 2.6 20:52:57 10° SW 20:58:54 83° NW 21:06:01 10° NE
Okean 1-7 2.9 20:56:01 10° N 21:00:19 73° E 21:01:51 39° SSE
Cosmos 1741 Rocket 4.0 20:56:49 10° SSW 21:02:04 86° WNW 21:07:25 10° NNE
Cosmos 1437 Rocket 2.6 21:02:24 10° NNW 21:06:12 81° W 21:07:19 44° S
OBJECT-B 3.7 21:04:29 10° SW 21:06:24 14° W 21:08:18 10° NW
Cosmos 1763 Rocket 3.9 21:05:09 10° NNW 21:10:25 61° WSW 21:13:14 27° S
Cosmos 1703 Rocket 3.5 21:06:18 10° NNW 21:10:39 78° W 21:12:20 37° S
H-2A R/B 3.9 21:07:11 10° N 21:11:17 62° WNW 21:14:45 14° SSW
Cosmos 1570 Rocket 4.0 21:07:33 10° NNW 21:12:55 79° ENE 21:14:58 39° SSE
Cosmos 2333 Rocket 3.6 21:08:01 10° N 21:12:55 27° NE 21:15:19 21° E
Cosmos 2084 Rocket 4.1 21:09:02 10° SW 21:13:10 56° NW 21:17:24 10° NNE
ATLAS 5 CENTAUR R/B 3.1 21:10:43 10° NNW 21:13:16 33° NE 21:14:58 25° E
Landsat 7 4.1 21:15:20 29° S 21:17:39 63° W 21:22:24 10° NNW
SPOT 5 2.7 21:17:39 49° ESE 21:18:30 60° ENE 21:22:52 10° N
SWARM A 4.1 21:15:38 10° N 21:18:53 82° NE 21:18:53 82° NE
NOSS 5 (C) 4.5 21:15:38 10° SSW 21:20:05 79° SE 21:23:28 10° NE
Meteor 1-5 Rocket 4.3 21:18:36 34° SSE 21:21:07 62° E 21:26:56 10° NNE
Cosmos 2208 Rocket 3.9 21:19:09 10° NNW 21:24:25 82° ENE 21:25:57 47° SSE
Cosmos 1733 Rocket 4.3 21:29:41 28° ENE 21:29:41 28° ENE 21:32:48 10° NNE
Meteor 1-11 Rocket 3.9 21:31:46 45° SE 21:32:52 52° E 21:38:30 10° NNE
Lacrosse 4 Rocket 2.4 21:37:37 33° ENE 21:37:37 33° ENE 21:40:11 10° NE
Tsikada Rocket 4.4 21:31:12 10° N 21:37:16 46° ENE 21:38:46 39° ESE
SL-27 R/B 4.3 21:37:55 16° WSW 21:39:59 29° WNW 21:42:56 10° N
Cosmos 2100 Rocket 3.9 21:36:57 30° S 21:40:12 85° W 21:46:24 10° N
SL-4 R/B 3.0 21:38:35 10° WNW 21:42:10 36° N 21:42:59 32° NE
Meteor 2-4 Rocket 3.9 21:37:12 10° NNW 21:42:44 66° W 21:44:40 39° SSW
USA 267 3.1 21:36:10 10° NE 21:42:45 83° SE 21:49:18 10° SW
Cosmos 2219 Rocket 3.1 21:37:38 10° NNW 21:42:55 38° NE 21:44:23 32° E
Cosmos 540 Rocket 3.7 21:38:01 10° NNW 21:43:08 62° WSW 21:44:28 45° SSW
Cosmos 2173 Rocket 3.9 21:41:11 33° S 21:44:11 85° W 21:50:20 10° N
SL-16 R/B 3.2 21:40:55 10° NW 21:46:09 39° WSW 21:48:19 28° SSW
Cosmos 1242 Rocket 3.7 21:48:20 10° N 21:50:53 36° NNE 21:50:53 36° NNE
SAR-Lupe-2 4.1 21:50:52 10° N 21:54:04 57° NW 21:54:04 57° NW
Meteor 1-23 Rocket 4.4 21:50:39 10° N 21:56:24 58° ENE 21:57:15 53° ESE
Cosmos 2322 3.8 21:50:49 10° NNW 21:56:28 64° ENE 21:57:25 55° ESE
Cosmos 1725 Rocket 4.0 21:55:18 52° SSE 21:56:45 69° E 22:03:04 10° NNE
Cosmos 1459 Rocket 4.2 21:53:46 30° SSW 21:57:05 70° W 22:03:28 10° N
ERS-1 Rocket 3.5 21:56:14 42° SW 21:57:28 52° W 22:02:22 10° NNW
Cosmos 1833 4.0 21:58:12 50° SSW 21:59:44 85° ESE 22:05:26 10° NNE
Cosmos 1500 4.5 22:00:27 33° W 22:00:58 35° WNW 22:04:26 10° N
SL-08 R/B 4.3 21:59:40 56° SSE 22:00:58 76° E 22:07:05 10° NNE
Cosmos 2346 Rocket 4.3 21:56:01 10° N 22:02:07 87° W 22:03:32 56° S
Cosmos 1536 3.4 22:03:05 50° NNE 22:03:05 50° NNE 22:06:07 10° N
Meteor 1-13 Rocket 4.2 21:56:46 10° NNW 22:02:17 73° W 22:03:24 56° SSW
Cosmos 2322 Rocket 3.3 21:58:15 10° NW 22:03:23 35° WSW 22:05:04 29° SW
Cosmos 2016 Rocket 4.0 22:02:20 46° S 22:04:24 87° W 22:10:50 10° N
Cosmos 1378 Rocket 4.4 22:01:16 10° N 22:04:52 40° NE 22:04:52 40° NE
Cosmos 2221 Rocket 3.7 22:01:05 10° NNW 22:05:34 70° W 22:05:37 70° W
Terra 1.9 22:06:49 61° SW 22:07:12 64° WSW 22:11:56 10° NNW
Okean 3 4.1 22:04:24 10° NNW 22:08:35 50° W 22:08:38 50° W
COSMOS 2487 4.3 22:12:29 27° N 22:12:29 27° N 22:14:13 10° NNE
Cosmos 2333 4.1 22:05:35 10° NNW 22:11:25 83° ENE 22:12:06 70° SE
Cosmos 1666 3.6 22:12:27 46° NNW 22:12:27 46° NNW 22:15:22 10° N
Cosmos 2360 Rocket 2.5 22:07:13 10° NW 22:12:44 54° WSW 22:13:33 50° SW
USA 234 3.1 22:16:21 55° SE 22:17:58 88° SW 22:24:34 10° NW
Iridium 4 Rocket 3.9 22:18:30 42° W 22:18:38 42° W 22:22:36 10° N
Cosmos 1864 Rocket 4.4 22:17:15 54° SSW 22:18:48 81° W 22:25:08 10° N
Lacrosse 5 4.0 22:18:30 10° W 22:21:01 14° WSW 22:21:01 14° WSW
ATLAS 3B R/B 2.9 22:14:49 10° SW 22:21:21 64° NW 22:27:59 10° NE
MOS 1-B Rocket 3.8 22:17:34 10° NNE 22:23:08 65° ESE 22:23:10 65° ESE
Cosmos 2297 Rocket 4.2 22:32:11 15° ENE 22:32:11 15° ENE 22:33:49 10° ENE
Cosmos 1743 4.4 22:35:21 30° NNE 22:35:21 30° NNE 22:37:26 10° NNE
Cosmos 2233 Rocket 3.9 22:34:08 71° S 22:34:54 86° E 22:41:16 10° N
Thor Agena Rocket 4.2 22:31:06 10° NNE 22:35:03 44° ENE 22:35:03 44° ENE
COSMOS 2428 2.6 22:33:56 10° NNW 22:39:43 85° ENE 22:39:48 84° E
Cosmos 44 Rocket 3.6 22:38:33 10° NW 22:42:56 69° NW 22:42:56 69° NW
Cosmos 2237 Rocket 3.0 22:38:42 10° NNW 22:44:00 39° NE 22:44:34 38° ENE
Cosmos 1271 Rocket 4.3 22:42:17 10° NNW 22:44:32 34° NNW 22:44:32 34° NNW
NOSS 0 Rocket 4.0 22:45:04 10° NNW 22:51:19 67° ENE 22:51:50 64° E
Cosmos 2333 Rocket 2.5 22:51:54 10° NNW 22:57:19 58° W 22:57:19 58° W
Cosmos 1503 Rocket 4.2 22:58:15 71° NNE 22:58:15 71° NNE 23:03:02 10° NNE
Geosat 4.2 22:58:12 68° N 22:58:12 68° N 23:02:44 10° NNW
Meteor 2-11 Rocket 4.4 23:06:27 75° WSW 23:06:42 77° W 23:12:51 10° N
Lacrosse 4 Rocket 3.6 23:13:52 19° WNW 23:15:02 22° NW 23:18:20 10° N
ALOS 2 3.7 23:17:00 43° N 23:17:00 43° N 23:20:00 10° N
Cosmos 968 Rocket 4.4 23:17:23 40° WNW 23:17:46 41° WNW 23:22:39 10° N
Cosmos 773 Rocket 4.4 23:13:20 10° NNW 23:17:38 59° N 23:17:38 59° N
Cosmos 2034 Rocket 4.3 23:19:27 53° E 23:19:27 53° E 23:25:19 10° NNE
Cosmos 2227 Rocket 3.4 23:22:00 32° ENE 23:22:00 32° ENE 23:25:35 10° NE
Cosmos 1072 Rocket 4.4 23:20:38 79° ENE 23:20:38 79° ENE 23:26:32 10° N
Cosmos 1891 Rocket 4.4 23:21:56 81° E 23:21:57 81° E 23:28:23 10° N
USA 267 4.2 23:19:19 10° NE 23:25:28 45° NNW 23:31:36 10° W
Cosmos 2219 Rocket 3.2 23:21:39 10° NW 23:26:05 36° W 23:26:05 36° W
Cosmos 1538 Rocket 4.5 23:31:17 10° NNW 23:35:35 56° NNE 23:35:35 56° NNE
Cosmos 1607 4.2 23:40:20 10° NNW 23:46:46 65° NE 23:47:26 61° E
